Weather History for Ottumwa, IA

Change the Weather History Date:

Monday, June 18, 2012

  Actual Average Record
Temperature  
Mean Temperature 82 °F 72 °F  
Max Temperature 89 °F 82 °F 101 °F (1953)
Min Temperature 75 °F 62 °F 47 °F (1920)
Degree Days  
Heating Degree Days 0 0  
Month to date heating degree days 13 19  
Since 1 June heating degree days 13 19  
Since 1 July heating degree days 5038 6315  
Cooling Degree Days 17 7  
Month to date cooling degree days 110 96  
Year to date cooling degree days 264 160  
Since 1 June cooling degree days 110 96  
Growing Degree Days 32 (Base 50)    
Moisture  
Dew Point 68 °F    
Average Humidity 66    
Maximum Humidity 79    
Minimum Humidity 52    
Precipitation  
Precipitation 0.00 in 0.17 in 4.29 in (1946)
Month to date precipitation 2.86 3.07  
Year to date precipitation 14.21 15.60  
Sea Level Pressure  
Sea Level Pressure 29.63 in    
Wind  
Wind Speed 15 mph (SSW)    
Max Wind Speed 29 mph    
Max Gust Speed 39 mph    
Visibility 10 miles    
Events      
T = Trace of Precipitation, MM = Missing Value Source: NWS Daily Summary

Daily Weather History Graph

Daily Weather History Graph

Search for Another Location

Airport:

Trip Planner

Search our weather history database for the weather conditions in past years. The results will help you decide how hot, cold, wet, or windy it might be!

Date:

Astronomy

Jun. 18, 2012 Rise Set
Actual Time 5:36 AM CDT 8:45 PM CDT
Civil Twilight 5:03 AM CDT 9:18 PM CDT
Nautical Twilight 4:20 AM CDT 10:02 PM CDT
Astronomical Twilight 3:28 AM CDT 10:53 PM CDT
Moon 4:52 AM CDT 8:03 PM CDT
Length of Visible Light 16h 15m
Length of Day
15h 08m
Waning Crescent, 1% of the Moon is Illuminated
Jun 18
Waning Crescent
Jun 19
New
Jun 26
First Quarter
Jul 3
Full
Jul 10
Last Quarter

Hourly Weather History & Observations

Time (CDT) Temp. Heat Index Dew Point Humidity Pressure Visibility Wind Dir Wind Speed Gust Speed Precip Events Conditions
12:53 AM 77.0 °F - 68.0 °F 74% 29.65 in 10.0 mi South 13.8 mph - N/A   Clear
1:53 AM 77.0 °F - 68.0 °F 74% 29.64 in 10.0 mi South 10.4 mph - N/A   Clear
2:53 AM 75.9 °F - 66.9 °F 74% 29.61 in 10.0 mi South 15.0 mph 21.9 mph N/A   Clear
3:53 AM 75.0 °F - 66.9 °F 76% 29.62 in 10.0 mi South 11.5 mph - N/A   Clear
4:53 AM 75.9 °F - 66.9 °F 74% 29.62 in 10.0 mi South 11.5 mph - N/A   Clear
5:53 AM 75.9 °F - 66.9 °F 74% 29.62 in 10.0 mi South 13.8 mph 21.9 mph N/A   Clear
6:53 AM 75.9 °F - 68.0 °F 76% 29.62 in 10.0 mi South 13.8 mph 19.6 mph N/A   Clear
7:53 AM 78.1 °F - 68.0 °F 71% 29.62 in 10.0 mi SSW 18.4 mph 26.5 mph N/A   Clear
8:53 AM 80.1 °F 82.7 °F 68.0 °F 67% 29.61 in 10.0 mi SSW 20.7 mph 28.8 mph N/A   Clear
9:53 AM 82.0 °F 85.5 °F 69.1 °F 65% 29.61 in 10.0 mi SSW 23.0 mph 32.2 mph N/A   Clear
10:53 AM 84.0 °F 87.8 °F 69.1 °F 61% 29.61 in 10.0 mi SSW 19.6 mph 31.1 mph N/A   Clear
11:53 AM 84.9 °F 88.8 °F 69.1 °F 59% 29.62 in 10.0 mi SSW 19.6 mph 31.1 mph N/A   Clear
12:53 PM 87.1 °F 92.0 °F 70.0 °F 57% 29.60 in 10.0 mi South 18.4 mph 29.9 mph N/A   Clear
1:53 PM 88.0 °F 92.9 °F 70.0 °F 55% 29.58 in 10.0 mi SSW 18.4 mph 39.1 mph N/A   Clear
2:53 PM 89.1 °F 95.0 °F 71.1 °F 55% 29.60 in 10.0 mi SSW 20.7 mph 28.8 mph N/A   Clear
3:53 PM 89.1 °F 95.0 °F 71.1 °F 55% 29.60 in 10.0 mi SSW 15.0 mph 29.9 mph N/A   Clear
4:53 PM 89.1 °F 94.1 °F 70.0 °F 53% 29.60 in 10.0 mi SSW 19.6 mph 29.9 mph N/A   Clear
5:53 PM 89.1 °F 94.1 °F 70.0 °F 53% 29.61 in 10.0 mi SSW 13.8 mph 25.3 mph N/A   Clear
6:53 PM 87.1 °F 92.8 °F 71.1 °F 59% 29.62 in 10.0 mi South 10.4 mph - N/A   Clear
7:53 PM 84.9 °F 88.8 °F 69.1 °F 59% 29.64 in 10.0 mi South 9.2 mph - N/A   Clear
8:53 PM 82.0 °F 84.9 °F 68.0 °F 62% 29.65 in 10.0 mi South 10.4 mph - N/A   Clear
9:53 PM 81.0 °F 83.0 °F 66.0 °F 60% 29.68 in 10.0 mi South 11.5 mph - N/A   Clear
10:53 PM 79.0 °F - 66.0 °F 64% 29.70 in 10.0 mi South 9.2 mph - N/A   Clear
11:53 PM 78.1 °F - 64.9 °F 64% 29.72 in 10.0 mi South 9.2 mph - N/A   Clear